Location: Diguira
(13.1838°N, 4.9109°W)
Time: 17:19:08
(UTC+00:00)

NOAA 11 - Pass Details

Date: 18 September 2020
Orbit: 832 x 850 km, 98.4° (Epoch: 24 October)

Event Time Altitude Azimuth Distance (km) Brightness Sun altitude
Rises 18:43:08 0° 169° (S) 3,398 7.2 -6.9°
Reaches altitude 10° 18:45:29 10° 170° (S) 2,465 6.5 -7.4°
Maximum altitude 18:50:58 82° 257° (WSW) 860 4.4 -8.8°
Drops below altitude 10° 18:56:28 10° 345° (NNW) 2,470 6.9 -10.1°
Sets 18:58:50 0° 347° (NNW) 3,406 7.6 -10.7°
